User: anonymous   Login
Location: Platte
(43.3870°N, 98.8440°W)
Time: 08:57:40
(UTC-05:00)
Language:

Landsat 7 - Orbit

View from above orbital plane
View from above orbital plane
View from above satellite
View from above satellite

Ground track
Ground track

The orbit data is extracted from the following two-line orbital elements,

1 25682U 99020A   17111.74798397 +.00000075 +00000-0 +26796-4 0  9994
2 25682 098.2145 183.6793 0001168 109.2884 250.8431 14.57104984958377
Epoch (UTC): 21 April 2017 17:57:05
Eccentricity: 0.0001168
inclination: 98.2145°
perigee height: 702 km
apogee height: 703 km
right ascension of ascending node: 183.6793°
argument of perigee: 109.2884°
revolutions per day: 14.57104984
mean anomaly at epoch: 250.8431°
orbit number at epoch: 95837

The dashed part of the orbit path shows where the satellite is in the earth's shadow,  

DLR